EW9845 Weather Reports


time (UTC)temp
C
wind
direction
speed
KPH
gust
KPH
rain 1hr
cm
rain 24hr
cm
rain mn
cm
humidity
%
barometer
mb
20260507023050 14 333 0.0 0.0 0.00 0.15 0.15 87 1012.3
20260507021550 15 333 0.0 0.0 0.00 0.15 0.15 86 1012.5
20260507020105 15 333 0.0 0.0 0.00 0.15 0.15 85 1012.1
20260507014554 16 333 0.0 0.0 0.00 0.15 0.15 83 1012.0
20260507013049 16 333 0.0 0.0 0.00 0.15 0.15 81 1011.7
20260507011543 16 333 0.0 0.0 0.00 0.15 0.15 79 1011.4
20260507010042 17 333 0.0 0.0 0.00 0.15 0.15 78 1011.0
20260507004544 17 332 0.0 0.0 0.00 0.15 0.15 78 1010.7
20260507003042 17 332 0.0 0.0 0.00 0.15 0.15 79 1010.6
20260507001542 17 332 0.0 0.0 0.00 0.15 0.15 77 1010.7
20260507000040 17 332 0.0 0.0 0.00 0.15 0.15 78 1010.5
20260506234540 18 331 0.0 0.0 0.00 0.15 0.15 77 1010.2
20260506233039 18 331 0.0 1.6 0.00 0.15 0.15 77 1010.3
20260506231549 18 331 0.0 0.0 0.00 0.15 0.15 76 1010.0
20260506230051 18 331 0.0 0.0 0.00 0.15 0.15 78 1010.1
20260506224539 18 333 0.0 0.0 0.00 0.15 0.15 77 1009.8
20260506223138 18 333 0.0 0.0 0.00 0.15 0.15 78 1009.7
20260506221535 17 332 0.0 0.0 0.00 0.15 0.15 80 1009.9
20260506220037 17 332 0.0 0.0 0.00 0.15 0.15 77 1009.8
20260506214534 17 332 0.0 0.0 0.00 0.15 0.15 80 1009.7
20260506213042 16 332 0.0 0.0 0.00 0.15 0.15 79 1010.0
20260506211546 16 12 0.0 0.0 0.00 0.15 0.15 81 1010.1
20260506210035 16 21 0.0 0.0 0.00 0.15 0.15 82 1010.6
20260506204534 15 331 0.0 0.0 0.00 0.15 0.15 83 1011.0
20260506203032 15 53 0.0 0.0 0.00 0.15 0.15 84 1010.4
20260506201538 15 306 0.0 0.0 0.00 0.15 0.15 85 1010.8
20260506200032 14 304 0.0 0.0 0.00 0.15 0.15 85 1010.8
20260506194532 14 304 0.0 0.0 0.00 0.15 0.15 84 1010.8
20260506193030 14 360 0.0 0.0 0.00 0.15 0.15 85 1011.0
20260506191530 14 317 0.0 1.6 0.00 0.15 0.15 86 1010.9
20260506190030 13 24 0.0 0.0 0.00 0.15 0.15 87 1011.0
20260506184529 13 25 0.0 0.0 0.00 0.15 0.15 87 1011.2
20260506183036 13 290 0.0 1.6 0.00 0.15 0.15 87 1011.2
20260506181528 13 315 0.0 6.4 0.00 0.15 0.15 87 1010.9
20260506180028 13 318 0.0 0.0 0.00 0.15 0.15 89 1011.0
20260506174527 13 319 0.0 0.0 0.00 0.15 0.15 89 1011.1
20260506173026 13 320 0.0 0.0 0.00 0.15 0.15 90 1010.9
20260506171529 13 44 0.0 3.2 0.00 0.15 0.15 91 1010.8
20260506170024 13 48 0.0 0.0 0.00 0.15 0.15 91 1010.6
20260506164523 13 53 0.0 0.0 0.00 0.15 0.15 91 1010.7
20260506163023 13 53 0.0 0.0 0.00 0.15 0.15 91 1010.1
20260506161523 13 52 0.0 0.0 0.00 0.15 0.15 93 1009.5
20260506160023 12 348 0.0 0.0 0.08 0.15 0.15 93 1009.7
20260506154520 12 263 0.0 6.4 0.13 0.15 0.15 93 1010.0
20260506153020 12 15 0.0 12.9 0.15 0.15 0.15 93 1008.8
20260506151520 12 59 1.6 8.0 0.15 0.15 0.15 92 1007.5
20260506150018 11 107 0.0 0.0 0.08 0.08 0.08 92 1008.8
20260506144516 11 42 0.0 0.0 0.03 0.03 0.03 91 1009.4
20260506143026 12 325 0.0 1.6 0.00 0.00 0.00 90 1010.5
20260506141511 12 62 0.0 1.6 0.00 0.00 0.00 88 1009.7
20260506140009 13 42 0.0 1.6 0.00 0.00 0.00 86 1009.6
20260506134504 13 360 0.0 3.2 0.00 0.00 0.00 84 1010.6
20260506133102 14 34 0.0 3.2 0.00 0.00 0.00 84 1009.0
20260506131558 14 344 0.0 0.0 0.00 0.00 0.00 84 1008.7
20260506124555 15 50 0.0 0.0 0.00 0.00 0.00 84 1007.6
20260506123050 15 51 0.0 0.0 0.00 0.00 0.00 82 1007.0
20260506121552 16 52 0.0 0.0 0.00 0.00 0.00 81 1007.1
20260506120045 16 52 0.0 0.0 0.00 0.00 0.00 81 1006.9
20260506114639 16 52 0.0 0.0 0.00 0.00 0.00 81 1006.5
20260506113038 16 52 0.0 0.0 0.00 0.00 0.00 80 1006.3
20260506111536 17 52 0.0 0.0 0.00 0.00 0.00 80 1006.5
20260506110033 17 52 0.0 0.0 0.00 0.00 0.00 80 1006.1
20260506104531 17 52 0.0 0.0 0.00 0.00 0.00 80 1006.1
20260506103030 18 52 0.0 0.0 0.00 0.00 0.00 80 1005.7
20260506101526 18 52 0.0 0.0 0.00 0.00 0.00 79 1005.5
20260506100027 18 52 0.0 0.0 0.00 0.00 0.00 79 1005.3
20260506094521 19 53 0.0 1.6 0.00 0.00 0.00 78 1005.2
20260506093018 19 53 0.0 1.6 0.00 0.00 0.00 78 1004.9
20260506091517 20 53 0.0 0.0 0.00 0.00 0.00 78 1004.8
20260506090019 20 53 0.0 0.0 0.00 0.00 0.00 77 1004.6
20260506084512 20 52 0.0 0.0 0.00 0.00 0.00 77 1004.7
20260506083011 21 52 0.0 0.0 0.00 0.00 0.00 78 1004.5
20260506081509 21 52 0.0 0.0 0.00 0.00 0.00 79 1004.2
20260506073008 20 52 0.0 0.0 0.00 0.00 0.00 78 1004.5
20260506071508 20 52 0.0 0.0 0.00 0.00 0.00 79 1004.5
20260506061603 20 52 0.0 0.0 0.00 0.00 0.00 77 1004.4
20260506044547 23 178 0.0 0.0 0.00 0.00 0.00 85 1004.3
20260506043043 23 178 0.0 0.0 0.00 0.00 0.00 85 1004.2
20260506041541 23 178 0.0 0.0 0.00 0.00 0.00 84 1004.1
20260506040044 23 178 0.0 0.0 0.00 0.00 0.00 82 1003.5
20260506034543 24 178 0.0 0.0 0.00 0.00 0.00 81 1003.2
20260506033044 24 178 0.0 0.0 0.00 0.00 0.00 80 1002.9
20260506031547 25 178 0.0 0.0 0.00 0.00 0.00 78 1002.8
20260506030041 25 178 0.0 0.0 0.00 0.00 0.00 76 1002.5
20260506024546 26 178 0.0 0.0 0.00 0.00 0.00 75 1002.2